sat.trackr.live / text

‹ back to catalog

LEMUR-2-MANO

NORAD 57390 · 2023-100E

PAYLOAD ACTIVE UNKNOWN

§ Identity

Operator
Country
US
Launch date
2023-07-18
Launch site
RLLB
Launch vehicle
Mass (kg)
RCS (m²)

Purposes: earth_obs

External: N2YO · Heavens-Above · Gunter

§ Orbital elements

Epoch: 2026-05-24T02:10:48.855936Z

Period
88.93 min
Inclination
99.4444°
Eccentricity
0.0033888
Mean motion
16.19263619 rev/d
Perigee alt
199.2 km
Apogee alt
243.9 km
Semi-major
6,599.7 km
B*
1.3522e-3
RAAN
194.1069°
Arg perigee
214.5574°
Mean anomaly
145.3505°
Rev number
15,837

§ Raw data

LEMUR-2-MANO1 57390U 23100E   26144.09084324  .02708307  36786-5  13522-2 0  99942 57390  99.4444 194.1069 0033888 214.5574 145.3505 16.19263619158379

JSON: /api/v1/satellites/57390 · /tle

For live sub-satellite position, see the globe view (requires WebGL).

§ Visibility from observer

Set your observer location to see the next 7 days of passes ≥ 10°. The values pass through the URL so the page stays shareable.

No JS? Fill the form by hand. The geolocation button needs JavaScript.